User: anonymous   Login
Location: Unspecified
(0.0000°N, 0.0000°E)
Time: 11:28:08
(UTC+00:00)
Language:

POLYITAN 1 - Orbit

View from above orbital plane
View from above orbital plane
View from above satellite
View from above satellite

Ground track
Ground track

The orbit data is extracted from the following two-line orbital elements,

1 40042U 14033AJ  20195.05596530  .00000131  00000-0  19975-4 0  9991
2 40042  97.9233 119.9091 0013823 200.6111 159.4550 14.88901333329310
Epoch (UTC): 13 July 2020 01:20:35
Eccentricity: 0.0013823
inclination: 97.9233°
perigee height: 592 km
apogee height: 611 km
right ascension of ascending node: 119.9091°
argument of perigee: 200.6111°
revolutions per day: 14.88901333
mean anomaly at epoch: 159.4550°
orbit number at epoch: 32931

The dashed part of the orbit path shows where the satellite is in the earth's shadow,  

DLR